Location: Newark
(41.7300°N, 13.7500°E)
Time: 05:35:24
(UTC+00:00)

LilacSat-2 - Visible Passes

Search period start: 26 November 2020 00:00
Search period end: 06 December 2020 00:00
Orbit: 512 x 534 km, 97.5° (Epoch: 25 November)

Date Brightness Start Highest point End Pass type
(mag) Time Alt. Az. Time Alt. Az. Time Alt. Az.
26 Nov ? 03:59:52 10° NE 04:02:20 16° E 04:04:47 10° SE visible
26 Nov ? 05:33:14 10° N 05:36:38 32° WNW 05:40:00 10° SW visible
26 Nov ? 16:13:59 10° S 16:17:48 68° W 16:21:39 10° NNW visible
27 Nov ? 03:48:22 10° ENE 03:49:46 12° E 03:51:11 10° ESE visible
27 Nov ? 05:20:37 10° N 05:24:15 46° WNW 05:27:50 10° SSW visible
27 Nov ? 16:01:31 10° SSE 16:05:22 83° ENE 16:09:13 10° N visible
28 Nov ? 05:08:04 10° N 05:11:50 67° WNW 05:15:32 10° SSW visible
29 Nov ? 04:55:36 10° NNE 04:59:23 84° ESE 05:03:08 10° S visible
29 Nov ? 17:12:49 10° SW 17:14:55 14° W 17:17:01 10° WNW visible
30 Nov ? 04:43:12 10° NNE 04:46:56 57° E 04:50:36 10° S visible
30 Nov ? 16:59:32 10° SW 17:02:22 20° W 17:05:12 10° NW visible
01 Dec ? 04:30:53 10° NNE 04:34:26 39° E 04:37:57 10° SSE visible
01 Dec ? 16:46:33 10° SSW 16:49:50 27° W 16:53:08 10° NW visible
02 Dec ? 04:18:40 10° NE 04:21:55 27° E 04:25:10 10° SSE visible
02 Dec ? 16:33:45 10° SSW 16:37:20 38° W 16:40:56 10° NNW visible
03 Dec ? 04:06:35 10° NE 04:09:24 20° E 04:12:11 10° SE visible
03 Dec ? 05:40:24 10° NNW 05:43:36 27° WNW 05:46:46 10° SW visible
03 Dec ? 16:21:06 10° S 16:24:51 55° W 16:28:37 10° NNW visible
04 Dec ? 03:54:46 10° ENE 03:56:51 14° E 03:58:55 10° SE visible
04 Dec ? 05:27:43 10° N 05:31:13 37° WNW 05:34:40 10° SW visible
04 Dec ? 16:08:33 10° S 16:12:23 80° WSW 16:16:13 10° NNW visible
05 Dec ? 05:15:08 10° N 05:18:49 54° WNW 05:22:27 10° SSW visible
